This is the latest recevied weather packets stored in our database for station/object N0NAI-13. If no packets are shown the sender has not sent any weather packets the latest 10 day(s).
| Time | Temp. | Humidity | Pressure | Rain* | Wind** | Luminosity | Snow |
|---|---|---|---|---|---|---|---|
| 1777959921 | 6.11° C | 56% | 1008.9 hPa | 0 mm | - | - | - |
| 1777959323 | 6.11° C | 58% | 1008.8 hPa | 0 mm | - | - | - |
| 1777958726 | 6.67° C | 56% | 1008.7 hPa | 0 mm | - | - | - |
| 1777958123 | 7.22° C | 53% | 1008.7 hPa | 0 mm | - | - | - |
| 1777957520 | 7.22° C | 52% | 1008.8 hPa | 0 mm | - | - | - |
| 1777956917 | 7.22° C | 52% | 1008.7 hPa | 0 mm | - | - | - |
| 1777956320 | 7.78° C | 51% | 1008.6 hPa | 0 mm | - | - | - |
| 1777955722 | 7.78° C | 50% | 1008.6 hPa | 0 mm | - | - | - |
| 1777955125 | 8.33° C | 49% | 1008.7 hPa | 0 mm | - | - | - |
| 1777954528 | 8.33° C | 49% | 1008.7 hPa | 0 mm | - | - | - |
| 1777953931 | 8.89° C | 49% | 1008.6 hPa | 0 mm | - | - | - |
| 1777953316 | 8.89° C | 51% | 1008.5 hPa | 0 mm | - | - | - |
| 1777952719 | 9.44° C | 50% | 1008.4 hPa | 0 mm | - | - | - |
| 1777952122 | 9.44° C | 49% | 1008.3 hPa | 0 mm | - | - | - |
| 1777951524 | 10° C | 48% | 1008.1 hPa | 0 mm | - | - | - |
| 1777950927 | 10° C | 48% | 1007.9 hPa | 0 mm | - | - | - |
| 1777950329 | 10° C | 48% | 1007.8 hPa | 0 mm | - | - | - |
| 1777949733 | 10° C | 49% | 1007.8 hPa | 0 mm | - | - | - |
| 1777949118 | 10° C | 49% | 1007.6 hPa | 0 mm | - | - | - |
| 1777948520 | 10° C | 49% | 1007.4 hPa | 0 mm | - | - | - |
| 1777947923 | 10.56° C | 48% | 1007.2 hPa | 0 mm | - | - | - |
| 1777947326 | 10.56° C | 47% | 1006.7 hPa | 0 mm | - | - | - |
| 1777946723 | 11.11° C | 47% | 1006.5 hPa | 0 mm | - | - | - |
| 1777946120 | 11.11° C | 47% | 1006.3 hPa | 0 mm | - | - | - |
| 1777945517 | 11.67° C | 47% | 1006.1 hPa | 0 mm | - | - | - |
* Rain latest hour (hover to see other rain measurements)
** Current wind speed in m/s (hover to see current wind gust speed)